Back to catalog

SACI 1

AliveScienceSSO
NORAD 25941·PAYLOAD·🇧🇷 Brazil

Launched Oct 14, 1999 from Taiyuan Satellite Launch Center

Loading…

Next Passes (next 24 hours)

TLE

FreshSource: Space-Track

Epoch: Sep 14, 2026, 09:23 UTC

1 25941U 99057B   26257.39152911  .00000264  00000-0  72645-4 0  9994
2 25941  98.6273 308.7812 0008804  33.5976 326.5777 14.54971660425618

Track SACI 1 in real time with AllMySat

Download on the App Store